Location: Newark
(23.1300°N, 73.6109°E)
Time: 08:03:42
(UTC+00:00)

Hubble Space Telescope - Pass Details

Date: 30 July 2021
Orbit: 535 x 539 km, 28.5° (Epoch: 26 September)

Event Time Altitude Azimuth Distance (km) Brightness Sun altitude
Rises 16:28:54 0° 287° (WNW) 2,667 5.2 -32.5°
Reaches altitude 10° 16:31:10 10° 285° (WNW) 1,776 4.1 -32.9°
Enters shadow 16:31:58 15° 285° (WNW) 1,467 3.6 -33.0°
